sat.trackr.live / text

‹ back to catalog

STARLINK-2439

NORAD 48104 · 2021-027N

PAYLOAD ACTIVE UNKNOWN

§ Identity

Operator
Country
US
Launch date
2021-04-07
Launch site
AFETR
Launch vehicle
Mass (kg)
RCS (m²)

Purposes: comms

External: N2YO · Heavens-Above · Gunter

§ Orbital elements

Epoch: 2026-05-25T00:26:22.937856Z

Period
94.01 min
Inclination
53.1588°
Eccentricity
0.0001298
Mean motion
15.31701310 rev/d
Perigee alt
469.8 km
Apogee alt
471.6 km
Semi-major
6,848.9 km
B*
4.4032e-5
RAAN
157.7781°
Arg perigee
78.8889°
Mean anomaly
281.2258°
Rev number
28,438

§ Raw data

STARLINK-24391 48104U 21027N   26145.01832104  .00001001  00000+0  44032-4 0  99942 48104  53.1588 157.7781 0001298  78.8889 281.2258 15.31701310284388

JSON: /api/v1/satellites/48104 · /tle

For live sub-satellite position, see the globe view (requires WebGL).

§ Visibility from observer

Set your observer location to see the next 7 days of passes ≥ 10°. The values pass through the URL so the page stays shareable.

No JS? Fill the form by hand. The geolocation button needs JavaScript.